Regional Weather Roundup
Issued by NWS

Home | Current Version | Previous Version | Graphics & Text | Print | Product List | Glossary On
Versions: 1 2 3 4 5 6 7 8 9 10 11 12 13 14 15 16 17 18 19 20 21 22 23 24 25 26 27 28 29 30 31 32 33 34 35 36 37 38 39 40 41 42 43 44 45 46 47 48 49 50
000
ASUS43 KBIS 242259
RWRND

NORTH DAKOTA REGIONAL WEATHER ROUNDUP
NATIONAL WEATHER SERVICE BISMARCK ND
600 PM CDT THU APR 24 2014

NOTE: "FAIR" INDICATES FEW OR NO CLOUDS BELOW 12,000 FEET WITH NO
SIGNIFICANT WEATHER AND/OR OBSTRUCTIONS TO VISIBILITY.


NDZ001>003-009>011-017-250000-
NORTHWEST NORTH DAKOTA

CITY           SKY/WX    TMP DP  RH WIND       PRES   REMARKS
WILLISTON      PTSUNNY   60  26  27 W12       29.70F
MINOT          MOSUNNY   57  37  47 N12G21    29.68R
$$

NDZ018>021-031>035-040>046-250000-
SOUTHWEST NORTH DAKOTA

CITY           SKY/WX    TMP DP  RH WIND       PRES   REMARKS
BISMARCK       MOSUNNY   61  25  25 NW17G25   29.69R
GARRISON         N/A     59  29  31 NW18      29.69R
HETTINGER ARPT MOSUNNY   61  17  18 W18       29.73S
$$

NDZ004>008-012>016-024-026-027-054-250000-
NORTHEAST NORTH DAKOTA

CITY           SKY/WX    TMP DP  RH WIND       PRES   REMARKS
GRAND FORKS    CLOUDY    44  41  89 E9        29.69S
DEVILS LAKE    PTSUNNY   52  43  71 NE16      29.66R
$$

NDZ022-023-025-028>030-036>039-047>053-250000-
SOUTHEAST NORTH DAKOTA

CITY           SKY/WX    TMP DP  RH WIND       PRES   REMARKS
FARGO          MOSUNNY   52  45  77 E9        29.67S
$$




USA.gov is the U.S. government's official web portal to all federal, state and local government web resources and services.